Change the Weather History Date:

Monday, April 1, 2013

  Actual Average (KDAY) Record (KDAY)
Temperature  
Mean Temperature 39 °F 46 °F  
Max Temperature 46 °F 56 °F 79 °F (1986)
Min Temperature 33 °F 37 °F 18 °F (1923)
Degree Days  
Heating Degree Days 26 19  
Month to date heating degree days 19  
Since 1 July heating degree days 5058  
Cooling Degree Days 0 0  
Month to date cooling degree days 0  
Year to date cooling degree days 0  
Moisture  
Dew Point 26 °F    
Average Humidity 63    
Maximum Humidity 93    
Minimum Humidity 36    
Precipitation  
Precipitation 0.00 in 0.13 in 1.36 in (1970)
Month to date precipitation 0.13  
Year to date precipitation 8.42  
Snow  
Snow 0.00 in 0.00 in 3.00 in (1924)
Month to date snowfall 0.0  
Since 1 July snowfall 22.7  
Snow Depth -    
Sea Level Pressure  
Sea Level Pressure 30.00 in    
Wind  
Wind Speed 10 mph (NW)    
Max Wind Speed 17 mph    
Max Gust Speed 23 mph    
Visibility 9 miles    
Events Snow    
T = Trace of Precipitation, MM = Missing Value Source: NWS Daily Summary

Daily Weather History Graph

Daily Weather History Graph

Search for Another Location

Airport or City:

Trip Planner

Search our weather history database for the weather conditions in past years. The results will help you decide how hot, cold, wet, or windy it might be!

Date:

Astronomy

Apr. 01, 2013 Rise Set
Actual Time 7:19 AM EDT 7:59 PM EDT
Civil Twilight 6:52 AM EDT 8:26 PM EDT
Nautical Twilight 6:20 AM EDT 8:58 PM EDT
Astronomical Twilight 5:47 AM EDT 9:31 PM EDT
Moon 1:05 AM EDT (4/1) 11:06 AM EDT (4/1)
Length of Visible Light 13h 34m
Length of Day
12h 40m
Waning Gibbous, 67% of the Moon is Illuminated
Apr 1
Waning Gibbous
Apr 3
Last Quarter
Apr 10
New
Apr 18
First Quarter
Apr 25
Full

Hourly Weather History & Observations

Time (EDT) Temp. Windchill Dew Point Humidity Pressure Visibility Wind Dir Wind Speed Gust Speed Precip Events Conditions
12:54 AM 45.0 °F 40.6 °F 39.0 °F 80% 29.82 in 10.0 mi WSW 8.1 mph - N/A   Clear
2:54 AM 45.0 °F 40.6 °F 37.9 °F 76% 29.83 in 10.0 mi WNW 8.1 mph - N/A   Clear
3:54 AM 43.0 °F 36.8 °F 32.0 °F 65% 29.84 in 10.0 mi WNW 11.5 mph - N/A   Clear
4:54 AM 41.0 °F 35.2 °F 32.0 °F 70% 29.87 in 10.0 mi WNW 9.2 mph - N/A   Clear
5:31 AM 39.2 °F 35.0 °F 32.0 °F 75% 29.86 in 10.0 mi NNW 5.8 mph - N/A   Mostly Cloudy
5:54 AM 39.9 °F 33.9 °F 30.9 °F 70% 29.92 in 9.0 mi NW 9.2 mph - N/A   Overcast
6:06 AM 39.2 °F 30.8 °F 30.2 °F 70% 29.88 in 9.0 mi NW 15.0 mph - N/A   Overcast
6:54 AM 37.9 °F 30.0 °F 28.9 °F 70% 29.95 in 10.0 mi NW 12.7 mph - N/A   Overcast
7:54 AM 37.0 °F 30.4 °F 28.0 °F 70% 29.99 in 9.0 mi NW 9.2 mph - N/A   Overcast
8:51 AM 35.6 °F 26.6 °F 28.4 °F 75% 29.97 in 2.5 mi NNW 13.8 mph 23.0 mph 0.00 in Snow Light Snow
8:54 AM 35.1 °F 26.9 °F 28.9 °F 78% 30.02 in 3.0 mi North 11.5 mph 23.0 mph 0.00 in Snow Light Snow
9:03 AM 33.8 °F 25.3 °F 30.2 °F 87% 29.98 in 1.5 mi NW 11.5 mph - 0.00 in Snow Light Snow
9:22 AM 33.8 °F 27.7 °F 32.0 °F 93% 29.98 in 3.0 mi NW 6.9 mph - 0.00 in Snow Light Snow
9:37 AM 35.6 °F 29.9 °F 30.2 °F 81% 29.98 in 10.0 mi NW 6.9 mph - 0.00 in   Overcast
9:54 AM 37.0 °F 31.0 °F 30.9 °F 79% 30.04 in 10.0 mi WNW 8.1 mph - 0.00 in   Overcast
10:42 AM 35.6 °F 27.5 °F 28.4 °F 75% 29.99 in 9.0 mi North 11.5 mph - 0.00 in   Overcast
10:54 AM 36.0 °F 28.5 °F 28.9 °F 76% 30.05 in 7.0 mi NNW 10.4 mph - 0.00 in Snow Light Snow
11:41 AM 39.2 °F 32.0 °F 26.6 °F 61% 30.01 in 10.0 mi North 11.5 mph 16.1 mph 0.00 in   Mostly Cloudy
11:54 AM 41.0 °F 33.5 °F 27.0 °F 57% 30.06 in 10.0 mi NNW 13.8 mph 18.4 mph 0.00 in   Mostly Cloudy
12:54 PM 43.0 °F 37.2 °F 21.0 °F 42% 30.07 in 10.0 mi NW 10.4 mph 23.0 mph N/A   Scattered Clouds
1:54 PM 45.0 °F 37.6 °F 19.9 °F 37% 30.07 in 10.0 mi WNW 17.3 mph 20.7 mph N/A   Scattered Clouds
2:54 PM 44.1 °F 37.4 °F 21.0 °F 40% 30.06 in 10.0 mi NNW 13.8 mph 23.0 mph N/A   Mostly Cloudy
3:03 PM 42.8 °F 35.8 °F 17.6 °F 36% 30.02 in 10.0 mi NNW 13.8 mph 23.0 mph N/A   Mostly Cloudy
5:54 PM 43.0 °F 36.8 °F 19.0 °F 38% 30.08 in 10.0 mi WNW 11.5 mph 20.7 mph N/A   Mostly Cloudy
6:54 PM 42.1 °F 36.1 °F 19.0 °F 40% 30.09 in 10.0 mi NW 10.4 mph - N/A   Overcast
7:54 PM 39.9 °F 32.9 °F 17.1 °F 40% 30.11 in 10.0 mi WNW 11.5 mph - N/A   Clear
8:54 PM 37.9 °F 32.7 °F 17.1 °F 43% 30.13 in 10.0 mi WNW 6.9 mph - N/A   Scattered Clouds
9:54 PM 36.0 °F 31.1 °F 18.0 °F 48% 30.14 in 10.0 mi WNW 5.8 mph - N/A   Partly Cloudy
10:54 PM 35.1 °F 31.0 °F 18.0 °F 50% 30.16 in 10.0 mi NW 4.6 mph - N/A   Clear
11:54 PM 33.1 °F 28.7 °F 18.0 °F 54% 30.17 in 10.0 mi NNW 4.6 mph - N/A   Clear